Weather History for KBRL - October, 2012

Change the Weather History Date:

Friday, October 26, 2012

  Actual Average Record
Temperature  
Mean Temperature 40 °F 52 °F  
Max Temperature 48 °F 62 °F 84 °F (1963)
Min Temperature 32 °F 42 °F 18 °F (1942)
Degree Days  
Heating Degree Days 25 13  
Month to date heating degree days 293 249  
Since 1 July heating degree days 419 320  
Cooling Degree Days 0 0  
Month to date cooling degree days 15 19  
Year to date cooling degree days 1287 1201  
Moisture  
Dew Point 27 °F    
Average Humidity 60    
Maximum Humidity 78    
Minimum Humidity 42    
Precipitation  
Precipitation 0.00 in 0.10 in 1.23 in (2004)
Month to date precipitation 3.28 2.64  
Year to date precipitation 21.02 33.41  
Sea Level Pressure  
Sea Level Pressure 30.35 in    
Wind  
Wind Speed 11 mph (NNW)    
Max Wind Speed 21 mph    
Max Gust Speed 29 mph    
Visibility 10 miles    
Events      
T = Trace of Precipitation, MM = Missing Value Source: NWS Daily Summary

Daily Weather History Graph

Daily Weather History Graph

Search for Another Location

Airport or City:

Trip Planner

Search our weather history database for the weather conditions in past years. The results will help you decide how hot, cold, wet, or windy it might be!

Date:

Astronomy

Oct. 26, 2012 Rise Set
Actual Time 7:28 AM CDT 6:07 PM CDT
Civil Twilight 7:00 AM CDT 6:35 PM CDT
Nautical Twilight 6:28 AM CDT 7:07 PM CDT
Astronomical Twilight 5:56 AM CDT 7:39 PM CDT
Moon 4:24 PM CDT (10/26) 4:24 AM CDT (10/26)
Length of Visible Light 11h 35m
Length of Day
10h 39m
Waxing Gibbous, 91% of the Moon is Illuminated
Oct 26
Waxing Gibbous
Oct 29
Full
Nov 6
Last Quarter
Nov 13
New
Nov 20
First Quarter

Hourly Weather History & Observations

Time (CDT) Temp. Windchill Dew Point Humidity Pressure Visibility Wind Dir Wind Speed Gust Speed Precip Events Conditions
12:53 AM 39.2 °F 30.8 °F 28.4 °F 65% 30.23 in 10.0 mi NNW 15.0 mph 26.5 mph N/A   Overcast
1:53 AM 39.0 °F 29.6 °F 28.9 °F 67% 30.26 in 10.0 mi NNW 18.4 mph 28.8 mph N/A   Overcast
2:42 AM 37.4 °F 28.9 °F 28.4 °F 70% 30.26 in 10.0 mi NNW 13.8 mph 20.7 mph N/A   Scattered Clouds
2:53 AM 37.0 °F 30.4 °F 28.0 °F 70% 30.28 in 10.0 mi NNW 9.2 mph - N/A   Clear
3:53 AM 36.0 °F 28.0 °F 27.0 °F 70% 30.29 in 10.0 mi NNW 11.5 mph - N/A   Clear
4:53 AM 34.0 °F 27.2 °F 27.0 °F 75% 30.30 in 10.0 mi NNW 8.1 mph - N/A   Clear
5:53 AM 33.1 °F 26.1 °F 27.0 °F 78% 30.33 in 10.0 mi NW 8.1 mph - N/A   Clear
6:53 AM 32.0 °F 25.6 °F 27.0 °F 82% 30.36 in 10.0 mi NNW 6.9 mph - N/A   Clear
7:53 AM 33.1 °F 26.9 °F 27.0 °F 78% 30.38 in 10.0 mi NNW 6.9 mph - N/A   Clear
8:53 AM 37.0 °F 29.8 °F 28.0 °F 70% 30.39 in 10.0 mi NNW 10.4 mph - N/A   Clear
9:53 AM 39.9 °F 31.1 °F 27.0 °F 60% 30.39 in 10.0 mi North 17.3 mph 23.0 mph N/A   Clear
10:53 AM 42.8 °F 35.4 °F 26.6 °F 53% 30.38 in 10.0 mi North 15.0 mph 26.5 mph N/A   Clear
11:53 AM 45.0 °F 38.5 °F 28.0 °F 52% 30.40 in 10.0 mi North 13.8 mph 23.0 mph N/A   Clear
12:53 PM 46.0 °F 40.2 °F 26.1 °F 46% 30.38 in 10.0 mi NNW 12.7 mph - N/A   Clear
1:53 PM 46.9 °F - 27.0 °F 46% 30.38 in 10.0 mi NNW 11.5 mph - N/A   Clear
2:53 PM 46.9 °F - 26.1 °F 44% 30.36 in 10.0 mi North 13.8 mph - N/A   Clear
3:53 PM 48.0 °F - 27.0 °F 44% 30.35 in 10.0 mi NNW 11.5 mph 18.4 mph N/A   Clear
4:53 PM 46.0 °F 41.0 °F 27.0 °F 47% 30.35 in 10.0 mi NNW 10.4 mph 19.6 mph N/A   Clear
5:53 PM 44.1 °F 37.4 °F 27.0 °F 51% 30.36 in 10.0 mi NNW 13.8 mph - N/A   Clear
6:53 PM 42.1 °F 36.6 °F 27.0 °F 55% 30.37 in 10.0 mi NNW 9.2 mph - N/A   Clear
7:53 PM 39.9 °F 34.5 °F 28.0 °F 63% 30.38 in 10.0 mi NNW 8.1 mph - N/A   Clear
8:53 PM 39.0 °F 32.3 °F 27.0 °F 62% 30.37 in 10.0 mi NNW 10.4 mph - N/A   Clear
9:53 PM 37.9 °F 29.2 °F 27.0 °F 65% 30.39 in 10.0 mi North 15.0 mph - N/A   Clear
10:53 PM 36.0 °F 29.0 °F 28.0 °F 73% 30.39 in 10.0 mi North 9.2 mph - N/A   Clear
11:53 PM 35.1 °F 27.9 °F 28.0 °F 76% 30.39 in 10.0 mi North 9.2 mph - N/A   Clear